Regional Weather Roundup
Issued by NWS

Home | Current Version | Previous Version | Graphics & Text | Print | Product List | Glossary On
Versions: 1 2 3 4 5 6 7 8 9 10 11 12 13 14 15 16 17 18 19 20 21 22 23 24 25 26 27
000
ASUS45 KTFX 240310
RWRMT
MONTANA REGIONAL WEATHER ROUNDUP
NATIONAL WEATHER SERVICE GREAT FALLS MT
900 PM MDT FRI JUN 23 2017

NOTE: "FAIR" INDICATES FEW OR NO CLOUDS BELOW 12000 FEET WITH NO
SIGNIFICANT WEATHER AND/OR OBSTRUCTIONS TO VISIBILITY.

MTZ001>007-043-240400-
WEST OF THE DIVIDE

CITY           SKY/WX    TMP DP  RH WIND       PRES   REMARKS
KALISPELL      CLEAR     68  47  46 SW3       30.17F
MISSOULA       CLEAR     72  37  28 N9        30.17R
BUTTE          CLEAR     66  32  28 NE3       30.27R
MULLAN PASS    CLEAR     58  26  29 N6        30.32S
ANACONDA         N/A     64  37  36 CALM      30.25S
DEER LODGE       N/A     64  36  34 CALM      30.26R
EUREKA           N/A     73  37  27 MISG      30.17S
HAMILTON         N/A     72  41  33 NW5       30.18R
$$

MTZ008-052>055-240400-
SOUTHWEST MONTANA

CITY           SKY/WX    TMP DP  RH WIND       PRES   REMARKS
BOZEMAN        CLEAR     66  37  34 N3        30.24S
DILLON         CLEAR     63  40  42 NE9       30.22S
W YELLOWSTONE  CLEAR     59  27  29 CALM      30.30S
ENNIS          CLEAR     59  37  44 N9        30.30S
THREE FORKS      N/A     66  38  35 CALM      30.21S
$$

MTZ009-010-012-014-046-048-049-054-240400-
EAST SLOPES AND CENTRAL MONTANA

CITY           SKY/WX    TMP DP  RH WIND       PRES   REMARKS
CUT BANK       PTCLDY    58  41  53 NE7       30.28S
GREAT FALLS    CLOUDY    61  38  42 NE5       30.27S
MALMSTROM AFB  CLOUDY    62  39  42 E5        30.27S
HELENA         CLEAR     66  40  38 N6        30.23S
CHOTEAU          N/A     59  43  55 N6        30.31S
$$

MTZ011-013-016-021-045-047-050-051-240400-
NORTH CENTRAL MONTANA

CITY           SKY/WX    TMP DP  RH WIND       PRES   REMARKS
HAVRE          CLEAR     65  33  30 NW8       30.22S
LEWISTOWN      CLEAR     58  37  45 N5        30.28S
N BAR RANCH      N/A     57  34  41 N9        30.31S
CHINOOK          N/A     64  36  34 NW5       30.21R
FORT BENTON      N/A     64  36  34 MISG      30.26S
$$

MTZ017>020-022>027-061-062-240400-
NORTHEAST MONTANA

CITY           SKY/WX    TMP DP  RH WIND       PRES   REMARKS
GLASGOW        CLEAR     62  28  27 NW13      30.17F
JORDAN           N/A     64  30  27 N10       30.20S
SIDNEY         PTCLDY    59  32  36 NW8       30.14S
WOLF POINT     MOCLDY    63  31  30 N8        30.16S
MALTA          PTCLDY    63  34  34 N6        30.19F
PLENTYWOOD       N/A     55  36  47 CALM      30.12S
$$

MTZ028>42-056>058-240400-
SOUTHCENTRAL AND SOUTHEAST MONTANA

CITY           SKY/WX    TMP DP  RH WIND       PRES   REMARKS
BAKER          CLEAR     60  27  28 NW14      30.19S
BILLINGS       PTCLDY    63  37  38 E7        30.26R
LIVINGSTON     CLEAR     60  39  45 E12       30.26R
MILES CITY     CLEAR     66  26  22 N10       30.20R
BIG TIMBER     CLEAR     57  37  47 NE8       30.31R
FORSYTH          N/A     64  30  27 CALM      30.21S
ROUNDUP          N/A     64  29  27 NW6       30.15S
$$

REGIONAL REPORTS...DAKOTAS

CITY           SKY/WX    TMP DP  RH WIND       PRES   REMARKS
WILLISTON      MOCLDY    59  38  45 N7        30.13S
MINOT          CLEAR     54  35  48 NW8       30.06S
DICKINSON      PTCLDY    54  30  40 N5        30.13R
BEACH            N/A     54  30  40 NW8       30.20S
CROSBY           N/A     54  37  54 N15       30.12R
TIOGA          CLOUDY    55  37  50 W12       30.12S
WATFORD CITY   MOCLDY    57  36  44 NW6       30.12S
BISMARCK       CLEAR     60  35  39 N8        30.11R
GRAND FORKS    MOCLDY    57  41  55 NW12      29.97R
FARGO          CLOUDY    60  42  51 NW13      29.99R
BUFFALO SD       N/A     58  29  33 NW13      30.13R
RAPID CITY     CLEAR     55  27  34 N10       30.21R
$$

REGIONAL REPORTS...WYOMING/IDAHO/WASHINGTON

CITY           SKY/WX    TMP DP  RH WIND       PRES   REMARKS
GILLETTE       CLOUDY    54  34  46 NW6       30.26R
SHERIDAN       CLOUDY    57  40  52 NW5       30.26R
BUFFALO WY     CLOUDY    55  35  47 NW5       30.30R
YELLOWSTONE LA   N/A     53  27  36 VRB3      30.38R
IDAHO FALLS    CLEAR     73  33  23 SE5       30.19S
SALMON         CLEAR     66  37  34 S5        30.14R
BOISE          CLEAR     79  28  15 NW9       30.10S
SPOKANE        CLEAR     78  31  17 N6        30.17F
$$

REGIONAL REPORTS...ALBERTA

CITY           SKY/WX    TMP DP  RH WIND       PRES   REMARKS
EDMONTON       CLEAR     64  39  39 N5        30.21S
CALGARY        MOCLDY    59  36  41 N10       30.27S
LETHBRIDGE     PTCLDY    61  45  55 E3        30.25S
MEDICINE HAT   PTCLDY    64  41  42 NW9       30.20S
WATERTON GATE    N/A     57  43  58 E5          N/A
CARDSTON         N/A     61  41  48 SE2         N/A
MILK RIVER       N/A     59  43  55 N6          N/A
$$

REGIONAL REPORTS...SASKATCHEWAN

CITY           SKY/WX    TMP DP  RH WIND       PRES   REMARKS
SWIFT CURRENT  MOCLDY    55  43  62 NW9       30.16S
REGINA         MOCLDY    48  37  66 N8        30.14R
SASKATOON      PTCLDY    52  41  66 E9        30.18R
CYPRESS HILLS    N/A     54  36  50 NW5         N/A
ROCKGLEN         N/A     55  37  50 NW8         N/A
$$




USA.gov is the U.S. government's official web portal to all federal, state and local government web resources and services.